Back to catalog

STARLINK-30393

AliveCommunicationsVLEO
NORAD 57866·PAYLOAD·🇺🇸 United States

Launched Sep 16, 2023 from Cape Canaveral Space Force Station

Loading…

Next Passes (next 24 hours)

TLE

FreshSource: CelesTrak SupGP

Epoch: Sep 14, 2026, 22:14 UTC

1 57866C 23144C   26257.92687500  .00010494  00000+0  38016-3 0  2570
2 57866  43.0002 296.2421 0001446 268.9197  21.5232 15.27567644    19

Track STARLINK-30393 in real time with AllMySat

Download on the App Store